Location: Agnicourt
(49.7160°N, 3.9541°E)
Time: 13:43:53
(UTC+00:00)

Daily predictions for brighter satellites

Satellite Brightness Start Highest point End
(mag) Time Altitude Azimuth Time Altitude Azimuth Time Altitude Azimuth
Meteor 2-3 Rocket 3.8 19:42:37 10° N 19:48:15 71° ENE 19:53:53 10° SSE
CZ-4C R/B 2.3 19:46:27 10° S 19:50:08 32° ESE 19:54:39 10° NE
Cosmos 292 Rocket 3.8 19:46:40 10° NNW 19:51:29 81° ENE 19:56:13 10° SSE
Cosmos 2084 4.0 19:47:46 10° SW 19:51:52 62° NW 19:56:00 10° NE
CSL-04 Rocket 4.5 19:47:32 10° S 19:52:56 54° W 19:58:17 10° NNW
Cosmos 1833 Rocket 2.7 19:47:44 10° SSW 19:53:20 82° ESE 19:58:59 10° NNE
CZ-4B DEB 4.4 19:47:51 10° SSE 19:53:23 80° WSW 19:58:57 10° NNW
ATLAS 2AS CENTAUR R/B 2.9 19:47:39 10° SW 19:54:38 81° NW 20:01:30 10° NE
CZ-4B R/B 3.3 19:50:10 10° SSE 19:55:50 81° ENE 20:01:30 10° NNW
Cosmos 1892 Rocket 4.2 19:53:29 10° N 19:57:33 37° ENE 20:01:34 10° SE
Okean-O 3.2 19:53:42 10° SE 19:57:49 43° ENE 20:01:59 10° N
Ariane Rocket 4.4 19:54:03 10° ESE 19:57:58 23° ENE 20:01:54 10° N
Cosmos 2360 Rocket 4.4 19:56:48 10° N 19:59:53 15° NNE 20:02:56 10° ENE
USA 305 3.3 19:57:07 10° WNW 20:01:07 53° NNE 20:04:51 10° E
Cosmos 1455 Rocket 3.8 19:58:02 10° SSE 20:02:00 34° E 20:05:59 10° NNE
Gbstr 26 Del rocket 3.3 19:56:39 10° WNW 20:02:03 84° SSW 20:06:26 10° ESE
SL-4 R/B 3.0 19:59:09 10° W 20:02:36 33° SW 20:06:06 10° SSE
Spot 2 Rocket 3.7 19:58:37 10° SSE 20:03:31 57° ENE 20:08:26 10° N
MetOp-B 4.2 19:58:26 10° SSE 20:03:47 86° WSW 20:09:11 10° NNW
Cosmos 2016 Rocket 4.4 20:01:13 10° SSE 20:07:06 45° E 20:12:57 10° NNE
Cosmos 2173 Rocket 4.0 20:02:52 10° S 20:08:58 74° E 20:15:11 10° NNE
Okean 1 Rocket 3.0 20:04:39 10° S 20:09:00 75° E 20:13:26 10° NNE
ADEOS 3.6 20:04:22 10° SSE 20:09:34 86° WSW 20:14:50 10° NNW
Cosmos 1816 Rocket 4.5 20:04:57 10° N 20:11:07 75° E 20:17:15 10° SSE
Helios 1A Rocket 2.6 20:11:58 10° N 20:15:07 66° WNW 20:18:14 10° SSW
Cosmos 2219 Rocket 4.5 20:13:58 10° N 20:16:37 13° NNE 20:19:16 10° NE
Meteor 1-27 4.4 20:17:17 10° S 20:22:45 53° E 20:28:11 10° NNE
ERS-1 Rocket 3.8 20:19:39 10° S 20:24:30 50° W 20:29:24 10° NNW
SKYMED 3 4.4 20:20:49 10° NNE 20:24:46 84° WNW 20:28:43 10° SSW
ATLAS 3B R/B 3.3 20:20:18 10° NW 20:27:57 62° WSW 20:34:58 11° SSE
Cosmos 2369 4.1 20:22:45 10° NNW 20:28:22 53° NE 20:33:06 14° SE
Cosmos 2322 Rocket 4.1 20:24:33 10° N 20:28:39 20° NE 20:32:45 10° E
DEBRIS 3.0 20:28:24 10° WSW 20:31:09 61° SSE 20:38:28 10° ENE
Cosmos 1741 Rocket 4.2 20:26:20 10° NNW 20:31:40 75° WSW 20:36:43 11° SSE
Cosmos 1452 Rocket 3.5 20:26:32 10° S 20:31:42 66° ESE 20:36:54 10° NNE
Cosmos 2082 Rocket 2.7 20:26:30 10° S 20:31:43 38° ESE 20:36:57 10° NE
SL-08 R/B 3.4 20:28:15 10° NNE 20:33:09 90° NNW 20:37:56 10° SSW
Sich 1 Rocket 3.9 20:32:18 10° SSW 20:36:38 67° WNW 20:41:00 10° N
Cosmos 1802 Rocket 4.0 20:32:24 10° S 20:38:36 85° E 20:44:47 10° N
Cosmos 1331 Rocket 4.1 20:33:21 10° SSW 20:38:37 82° WNW 20:43:51 10° NNE
YAOGAN 11 4.1 20:35:10 10° NNE 20:39:35 73° ESE 20:44:01 10° S
CZ-4B R/B 3.7 20:36:55 16° SE 20:40:29 49° ENE 20:45:08 10° N
Cosmos 1302 Rocket 4.1 20:42:57 10° S 20:47:58 56° ESE 20:53:03 10° NNE
Cosmos 1697 Rocket 4.1 20:45:12 10° NW 20:50:06 32° WSW 20:54:58 10° SSW
CZ-2C R/B 3.0 20:49:47 23° ESE 20:50:44 30° ENE 20:53:14 10° N
Cosmos 2151 3.9 20:47:56 10° N 20:51:39 32° ENE 20:53:43 20° ESE
Meteor 2-12 Rocket 4.4 20:46:12 10° N 20:52:19 87° E 20:57:39 14° S
Terra 3.4 20:48:45 10° SSW 20:52:53 30° W 20:57:02 10° NNW
NOSS 3-3 (A) 4.1 20:49:21 10° S 20:54:04 38° ESE 20:59:35 10° NE
SL-16 R/B 3.0 20:51:11 10° NNW 20:56:33 40° NE 21:00:34 17° ESE
COSMOS 2406 4.1 20:54:43 18° SSE 20:57:52 30° ESE 21:02:48 10° NE
Cosmos 1743 3.3 20:58:12 10° NNW 21:01:02 37° W 21:03:16 14° SSW
Cosmos 2228 2.8 20:58:22 12° S 21:02:09 87° ESE 21:06:17 10° N
USA 186 2.9 21:00:42 14° SSW 21:02:30 30° W 21:04:59 10° NNW
USA 306 3.9 21:00:05 10° SSW 21:00:59 16° SSW 21:00:59 16° SSW
Cosmos 1782 2.7 21:00:48 11° SSW 21:04:10 69° WNW 21:07:41 10° N
SPOT 3 Rocket 3.5 21:02:11 18° SSE 21:06:02 86° WSW 21:11:13 10° NNW
Cosmos 44 Rocket 3.7 21:05:37 10° SW 21:10:41 70° NW 21:15:54 10° NE
Cosmos 2333 Rocket 2.9 21:06:31 10° NNW 21:12:00 46° NE 21:15:41 20° ESE
Cosmos 1626 Rocket 3.5 21:07:59 10° N 21:12:20 71° ENE 21:14:41 27° SSE
CZ-4B R/B 2.7 21:13:30 26° S 21:15:14 62° WSW 21:18:37 10° NNW
Cosmos 1607 3.8 21:09:15 10° SSW 21:15:23 78° SE 21:21:40 10° NE
Cosmos 1980 Rocket 3.1 21:13:33 10° NW 21:18:51 41° WSW 21:23:04 15° S
Okean O Rocket 3.1 21:16:07 10° SSW 21:19:55 30° W 21:23:44 10° NNW
ISS -3.9 21:17:37 10° WSW 21:20:56 70° SSE 21:24:16 10° ENE
Meteor 1-25 Rocket 4.5 21:15:40 10° N 21:21:17 55° ENE 21:24:22 26° SE
Cosmos 2233 Rocket 4.1 21:15:17 10° SSW 21:21:30 75° W 21:27:42 10° N
Helios 1B rocket 4.0 21:21:08 15° E 21:22:12 17° ENE 21:24:35 10° NNE
NOSS 3-3 (C) 3.8 21:17:31 10° SSW 21:22:31 50° ESE 21:28:27 10° NE
USA 305 2.7 21:22:35 10° WNW 21:26:35 56° SW 21:27:30 42° SSE
Okean 1-7 Rocket 4.5 21:23:44 10° N 21:27:50 35° ENE 21:29:29 27° ESE
Cosmos 1933 3.4 21:27:23 37° SE 21:28:28 50° E 21:32:10 10° NNE
IRS-1C Rocket 4.2 21:25:22 22° S 21:28:49 71° WSW 21:34:06 10° NNW
Geosat 4.3 21:25:45 10° NE 21:30:33 45° ESE 21:32:49 28° S
Tsikada Rocket 4.5 21:25:30 10° NNW 21:31:32 56° W 21:36:32 15° SSW
Ariane Rocket 3.3 21:33:20 23° S 21:36:27 61° WSW 21:41:29 10° NNW
NOSS 3-4 (A) 4.2 21:30:06 10° NW 21:36:29 57° NE 21:42:12 18° ESE
Cosmos 2098 Rocket 3.8 21:34:56 31° SE 21:36:47 44° E 21:41:08 10° NNE
NOSS 3-4 (C) 4.2 21:30:43 10° NW 21:37:08 57° NE 21:42:51 18° ESE
CZ-4C R/B 3.0 21:33:45 10° WSW 21:38:02 47° NW 21:43:34 10° NE
Nadezhda 4 Rocket 4.2 21:32:57 10° N 21:38:56 54° ENE 21:42:00 28° SE
Cosmos 2360 Rocket 2.8 21:39:50 10° NNW 21:45:20 48° NE 21:48:24 25° ESE
Cosmos 2084 Rocket 4.0 21:41:50 10° NW 21:45:50 44° SW 21:47:04 34° S
Gbstr 26 Del rocket 4.3 21:43:55 10° W 21:47:49 25° SW 21:48:34 24° SSW
Cosmos 1461 3.9 21:50:45 25° E 21:50:45 25° E 21:52:52 10° ENE
Cosmos 1437 Rocket 2.3 21:48:45 49° S 21:49:37 88° ESE 21:53:12 10° NNE
Cosmos 1544 Rocket 3.8 21:49:36 25° SSW 21:52:02 68° WNW 21:56:23 10° N
BREEZE-M R/B 4.5 21:44:41 10° W 21:54:22 83° N 22:00:02 10° E
USA 234 3.8 21:50:22 10° ENE 21:56:11 33° SE 21:57:36 30° SSE
GRACE-FO 2 4.5 21:56:41 57° ESE 21:56:59 60° E 22:00:26 10° N
Cosmos 2219 Rocket 3.0 21:56:47 10° NNW 22:02:10 42° NE 22:05:14 23° ESE
Cosmos 1763 Rocket 4.5 22:03:46 29° ESE 22:04:26 29° E 22:08:58 10° NE
Cosmos 1805 2.6 22:01:51 10° N 22:05:08 84° W 22:05:16 81° SSW
DNEPR-1 R/B 4.3 21:59:49 10° NW 22:05:11 77° NE 22:08:22 31° SE
BREEZE-M DEB (TANK) 3.6 22:04:08 10° W 22:04:53 17° W 22:04:53 17° W
Cosmos 1777 Rocket 4.0 22:04:01 10° NNW 22:09:16 74° ENE 22:11:10 40° SE
Cosmos 1503 Rocket 4.2 22:05:15 10° NNW 22:10:25 60° ENE 22:12:20 36° SE
Cosmos 909 Rocket 4.3 22:04:36 10° SW 22:10:54 70° NW 22:17:27 10° NE
Cosmos 1766 4.4 22:09:50 10° NNE 22:12:23 24° ENE 22:12:23 24° ENE
Cosmos 2322 Rocket 2.2 22:07:57 10° NNW 22:13:39 77° ENE 22:15:56 38° SE
Cosmos 1536 4.1 22:12:28 10° NNE 22:15:34 25° ENE 22:15:51 25° E
Cosmos 2082 Rocket 3.3 22:10:16 10° SW 22:15:43 44° NW 22:21:12 10° NNE
Cosmos 1354 Rocket 4.5 22:16:08 10° NNW 22:21:17 52° ENE 22:23:15 34° ESE
Cosmos 1464 Rocket 3.9 22:18:25 31° S 22:21:32 86° W 22:27:45 10° N
Cosmos 1486 Rocket 4.0 22:17:04 10° NNW 22:22:20 80° WSW 22:24:02 44° S
Cosmos 1825 Rocket 3.4 22:18:24 10° NNW 22:22:45 83° W 22:23:40 55° S
Cosmos 1375 Rocket 4.5 22:18:44 20° SSW 22:23:27 80° SE 22:30:04 10° NE
Cosmos 1953 Rocket 3.6 22:20:50 10° N 22:25:11 63° ENE 22:25:57 52° SE
Meteor 1-5 Rocket 4.4 22:20:14 10° NNW 22:25:52 69° W 22:28:14 36° S
ALOS 2 3.4 22:27:20 34° ESE 22:28:23 40° ENE 22:32:30 10° N
ARIANE 5 R/B 3.1 22:27:36 40° ESE 22:28:36 48° ENE 22:32:54 10° N
Cosmos 2058 Rocket 3.8 22:28:26 36° E 22:28:42 37° E 22:32:42 10° NNE
COSMOS 2428 4.3 22:24:39 10° NNW 22:29:31 28° NE 22:33:44 13° E
Spot 4 4.3 22:28:39 39° ESE 22:29:58 52° ENE 22:34:37 10° N
Cosmos 220 Rocket 3.8 22:29:24 56° SW 22:30:12 82° WNW 22:34:19 10° NNE
Cosmos 2278 3.9 22:28:15 10° NW 22:33:51 59° WSW 22:35:41 40° S
CSL-04 DEB 3.9 22:34:56 85° SW 22:34:58 85° WSW 22:38:35 10° NNW
SL-16 R/B 2.9 22:35:22 10° NW 22:40:40 42° WSW 22:42:24 33° SSW
COSMOS 2406 3.9 22:36:39 12° SW 22:41:53 54° NW 22:47:32 10° NNE
Cosmos 1092 Rocket 3.9 22:37:12 10° N 22:43:23 78° E 22:45:38 42° SSE
Helios 1A 3.3 22:39:39 10° N 22:43:30 55° WNW 22:44:22 44° WSW
SAR-Lupe-2 4.4 22:44:30 37° ENE 22:44:30 37° ENE 22:47:26 10° N
PSLV R/B 4.3 22:43:06 10° NNE 22:47:01 36° E 22:47:01 36° E
CZ-2C R/B 3.6 22:45:10 10° NNE 22:49:36 68° ESE 22:50:07 61° SE
ACS3 Solar Sail 3.9 22:48:53 10° ENE 22:50:40 11° E 22:52:26 10° E
Aureole 1 Rocket 4.1 22:45:57 10° NNW 22:51:13 61° ENE 22:53:46 35° SE
Cosmos-2242 2.8 22:51:19 70° SE 22:51:32 72° E 22:55:40 10° NNE
Okean 1 3.6 22:53:46 47° W 22:53:59 47° WNW 22:57:27 10° N
Helios 1B rocket 2.8 22:55:06 41° W 22:55:06 41° W 22:58:16 10° NNW
Cosmos 2333 Rocket 3.1 22:51:02 10° NW 22:56:11 36° WSW 22:57:41 31° SW
Cosmos 2034 Rocket 4.1 22:53:27 35° SSW 22:56:21 73° W 23:02:44 10° N
Cosmos 1271 Rocket 4.1 22:58:25 24° ENE 22:58:25 24° ENE 23:00:31 10° NE
ISS -3.1 22:54:30 10° W 22:57:24 54° NW 22:57:24 54° NW
CZ-2C R/B 3.7 22:56:33 25° ESE 22:58:46 35° ENE 23:03:29 10° N
Cosmos 1707 3.6 23:02:42 34° N 23:02:42 34° N 23:04:29 10° N
Cosmos 1975 3.8 22:58:43 10° N 23:02:03 31° ENE 23:02:05 31° ENE
Cosmos 1833 4.1 23:04:37 48° S 23:06:13 76° ESE 23:11:52 10° NNE
Meteor 2-2 Rocket 4.2 23:09:38 48° S 23:11:20 90° E 23:17:07 10° NNE
Cosmos 468 Rocket 4.2 23:11:08 49° SE 23:11:53 53° ESE 23:17:01 10° NNE
Cosmos 2221 3.2 23:14:13 38° E 23:14:13 38° E 23:18:05 10° NNE
Cosmos 2322 4.1 23:13:31 10° NNW 23:19:10 58° NE 23:21:36 33° ESE
Cosmos 2297 Rocket 4.0 23:18:41 16° ESE 23:19:20 17° E 23:22:46 10° ENE
Cosmos 540 Rocket 3.4 23:18:15 49° SW 23:19:38 80° WNW 23:24:49 10° NNE
Cosmos 1634 Rocket 4.0 23:22:44 42° SSW 23:24:56 77° W 23:31:10 10° N
Cosmos 1461 4.1 23:24:21 24° W 23:25:49 34° NW 23:29:13 10° NNE
Cosmos 2279 Rocket 3.9 23:25:15 46° S 23:27:16 81° E 23:33:34 10° N
NOSS 3-4 (A) 4.3 23:20:59 10° NW 23:27:27 46° WSW 23:29:37 37° SSW
TSX-5 4.2 23:24:39 10° NNW 23:27:09 45° NNE 23:27:09 45° NNE
NOSS 3-4 (C) 4.2 23:21:35 10° NW 23:28:05 47° WSW 23:30:15 38° SSW
Cosmos 1898 Rocket 3.7 23:23:55 10° NNW 23:29:04 65° ENE 23:30:35 44° SE
Cosmos 2360 Rocket 3.1 23:24:06 10° NW 23:29:10 34° WSW 23:30:08 32° SW
RESURS DK-1 3.1 23:27:37 10° NNW 23:31:27 44° NE 23:32:11 39° E
USA 290 3.9 23:35:47 28° NW 23:35:47 28° NW 23:38:31 10° N
USA 234 3.2 23:33:08 10° ENE 23:39:43 89° SSE 23:44:54 18° WSW
NOSS 0 Rocket 4.3 23:33:41 10° NNW 23:39:49 61° NE 23:43:09 27° SE
Meteor 1-11 Rocket 3.9 23:36:22 10° N 23:42:05 66° ENE 23:43:52 43° SE
Cosmos 1763 Rocket 4.3 23:43:38 29° WSW 23:45:55 47° WNW 23:51:02 10° NNE
Cosmos 2219 Rocket 2.8 23:40:51 10° NW 23:46:05 40° WSW 23:46:54 38° SW
ARGOS Delta rocket 4.3 23:41:12 10° N 23:46:08 60° WNW 23:47:35 43° SW
Meteor 1-10 Rocket 4.5 23:46:38 45° SSE 23:48:15 62° E 23:54:06 10° NNE
Cosmos 1812 Rocket 3.5 23:48:46 65° SE 23:49:04 67° E 23:53:28 10° NNE
Cosmos 1536 4.2 23:47:37 10° NNW 23:50:22 26° W 23:50:22 26° W
BREEZE-M DEB (TANK) 3.9 23:36:51 10° WSW 23:50:50 85° SSE 23:54:25 10° ENE
Cosmos 1842 4.1 23:55:55 34° NW 23:55:55 34° NW 23:58:17 10° N
Intercosmos 24 4.1 23:51:22 10° N 23:55:40 55° ENE 23:55:56 53° E
Cosmos 1470 3.6 23:53:02 10° NNW 23:55:21 34° NW 23:55:21 34° NW
